Simultaneous Nadir Overpasses (SNOs) Predictions

Prediction of SNOs between AQUA and GOES-15 Satellite Orbit:

Table of predicted SNOs for the next 14.0 days since TLE Epoch: 5/28/2022
Index Date Time (AQUA) AQUA Lat,Lon GOES-15 Lat,Lon Distance(km) Time Diff (sec)
1 05/28/2022 21:55:17 0.71,-124.36 -0.05,-127.93 405.99 80
2 05/29/2022 10:16:28 0.35,-129.50 0.03,-127.95 175.88 80
3 05/31/2022 10:03:57 -0.33,-126.46 0.03,-128.01 177.31 80
4 05/31/2022 22:25:16 -0.76,-131.62 -0.01,-128.02 409.82 80
5 06/02/2022 22:12:44 -0.11,-128.58 -0.01,-128.07 56.94 80
6 06/04/2022 22:00:12 0.56,-125.53 -0.02,-128.13 295.71 80
7 06/05/2022 10:21:22 0.55,-130.66 -0.00,-128.15 285.99 80
8 06/07/2022 10:08:50 -0.14,-127.62 0.00,-128.20 66.47 80
9 06/09/2022 09:56:17 -0.79,-124.56 0.01,-128.24 418.64 80
10 06/09/2022 22:17:34 -0.32,-129.72 0.02,-128.24 169.19 80
